Precipitable_Water
0.78 0.78 0.76 0.73 0.75 0.75 0.76 0.75 0.77 0.78 0.79 0.78 0.79 0.80 0.80 0.78 0.79 0.77 0.76 0.73 0.71 0.77 0.83 0.82 0.80 0.83 0.78
0.65 0.67 0.67 0.70 0.68 0.68 0.71 0.73 0.74 0.76 0.76 0.76 0.75 0.76 0.76 0.76 0.74 0.72 0.72 0.69 0.70 0.74 0.83 0.80 0.77 0.86 0.83
0.58 0.63 0.63 0.66 0.63 0.65 0.66 0.66 0.69 0.72 0.74 0.74 0.73 0.73 0.73 0.71 0.68 0.65 0.64 0.65 0.68 0.67 0.70 0.78 0.84 0.81 0.89
0.58 0.57 0.58 0.62 0.61 0.58 0.57 0.63 0.61 0.68 0.71 0.70 0.71 0.69 0.69 0.67 0.61 0.56 0.57 0.58 0.61 0.65 0.63 0.64 0.76 0.83 0.85
0.55 0.54 0.54 0.54 0.53 0.58 0.56 0.59 0.62 0.64 0.65 0.67 0.67 0.65 0.66 0.62 0.58 0.55 0.50 0.45 0.48 0.57 0.63 0.67 0.70 0.79 0.89
0.53 0.51 0.53 0.55 0.59 0.57 0.57 0.55 0.53 0.66 0.63 0.62 0.63 0.58 0.57 0.57 0.56 0.48 0.37 0.32 0.30 0.37 0.46 0.53 0.59 0.64 0.68
0.55 0.55 0.54 0.57 0.59 0.57 0.58 0.58 0.58 0.63 0.64 0.58 0.54 0.47 0.49 0.45 0.39 0.33 0.31 0.32 0.32 0.32 0.36 0.46 0.53 0.58 0.62
0.61 0.61 0.61 0.62 0.60 0.60 0.61 0.60 0.59 0.59 0.59 0.43 0.39 0.31 0.32 0.30 0.31 0.34 0.36 0.36 0.38 0.38 0.39 0.41 0.47 0.51 0.55
0.61 0.62 0.63 0.63 0.62 0.61 0.55 0.51 0.47 0.45 0.42 0.35 0.30 0.29 0.29 0.31 0.35 0.38 0.37 0.38 0.41 0.42 0.42 0.40 0.39 0.38 0.40
0.57 0.56 0.60 0.61 0.60 0.58 0.54 0.46 0.37 0.31 0.35 0.30 0.29 0.28 0.25 0.33 0.36 0.38 0.38 0.40 0.46 0.48 0.49 0.44 0.39 0.36 0.35
0.53 0.50 0.47 0.45 0.44 0.43 0.42 0.38 0.34 0.32 0.31 0.30 0.27 0.28 0.29 0.29 0.35 0.38 0.43 0.46 0.47 0.49 0.47 0.43 0.41 0.39 0.36
0.46 0.38 0.33 0.30 0.30 0.34 0.38 0.41 0.41 0.38 0.35 0.31 0.28 0.32 0.36 0.38 0.40 0.44 0.46 0.49 0.49 0.49 0.47 0.44 0.46 0.44 0.44
0.41 0.34 0.31 0.31 0.30 0.33 0.34 0.33 0.32 0.34 0.33 0.34 0.38 0.39 0.40 0.37 0.37 0.38 0.39 0.41 0.42 0.41 0.43 0.44 0.42 0.41 0.37
0.41 0.37 0.35 0.32 0.29 0.32 0.29 0.28 0.28 0.29 0.33 0.39 0.43 0.43 0.40 0.41 0.40 0.37 0.39 0.38 0.44 0.45 0.45 0.44 0.42 0.42 0.40
0.43 0.40 0.35 0.32 0.30 0.32 0.32 0.31 0.28 0.28 0.33 0.43 0.45 0.43 0.43 0.42 0.38 0.39 0.39 0.40 0.43 0.44 0.43 0.41 0.42 0.42 0.42
0.44 0.41 0.36 0.32 0.29 0.32 0.33 0.30 0.29 0.31 0.38 0.42 0.42 0.40 0.40 0.40 0.43 0.40 0.41 0.42 0.42 0.42 0.42 0.39 0.39 0.42 0.45
0.47 0.41 0.37 0.33 0.31 0.32 0.33 0.32 0.30 0.34 0.40 0.42 0.40 0.38 0.35 0.35 0.43 0.47 0.42 0.41 0.41 0.39 0.39 0.41 0.41 0.44 0.48
Wind_Speed
26 26 27 27 28 28 29 29 29 29 29 28 27 27 27 27 26 25 23 22 20 19 19 19 18 21 24
26 26 26 28 28 28 28 28 28 28 28 27 26 26 26 25 24 23 22 20 19 18 17 16 16 17 22
25 26 27 27 27 28 28 29 29 28 27 26 26 25 25 24 22 21 20 19 17 17 15 13 11 12 15
26 26 26 27 27 28 28 29 28 28 27 27 26 25 24 23 21 19 19 18 16 16 14 14 13 10 11
26 26 26 26 26 26 26 26 26 24 25 25 24 24 23 21 20 18 17 16 16 15 14 15 15 14 12
26 26 25 25 24 24 24 23 22 22 22 22 21 20 19 17 16 16 15 15 14 14 14 15 16 15 16
26 25 25 24 24 23 23 21 20 19 18 18 17 17 16 15 14 13 13 13 12 13 14 14 15 16 16
26 25 24 23 23 22 21 19 19 18 18 17 15 14 13 13 13 12 12 12 12 13 13 14 15 16 17
26 25 24 23 22 21 19 19 17 17 16 15 14 13 13 12 12 11 11 11 11 11 11 12 14 15 15
26 25 24 22 21 20 19 17 16 15 16 15 14 13 12 12 12 12 12 11 12 12 12 13 13 14 14
26 23 22 21 20 20 19 18 16 15 14 14 13 13 11 10 11 11 13 13 13 13 13 13 13 14 14
26 24 22 21 19 19 18 17 16 15 15 13 12 12 11 11 11 13 14 15 15 15 15 14 14 15 15
27 25 23 22 20 19 19 17 16 15 15 15 13 12 12 12 13 13 13 15 16 15 15 14 14 14 14
28 26 24 22 21 21 19 18 16 16 16 16 15 14 14 14 13 13 14 13 14 15 15 15 15 16 16
29 27 25 24 23 22 21 20 18 17 17 17 16 15 15 15 15 16 15 15 15 15 15 16 16 17 18
30 28 27 25 25 24 22 21 20 19 19 18 17 16 16 18 18 17 17 16 16 17 17 17 19 19 20
31 29 28 27 26 25 24 23 22 21 20 19 18 17 16 16 16 17 17 17 18 18 19 20 20 20 21
Wind_Direction
276 279 281 284 287 287 287 287 286 285 285 286 287 287 288 289 289 288 284 282 281 278 273 265 259 246 231
280 282 283 285 285 285 285 285 284 284 284 285 286 285 287 289 286 284 282 279 276 273 274 263 254 247 230
279 279 281 282 284 284 285 285 284 283 282 283 283 285 286 287 284 281 278 276 270 269 262 249 249 237 227
277 279 281 282 283 284 285 285 284 281 280 280 281 282 282 283 279 276 274 270 265 263 250 240 234 231 221
275 278 279 282 283 285 286 285 284 282 280 279 279 280 278 277 274 271 270 265 259 253 243 235 231 225 214
274 276 277 279 282 285 286 286 285 280 279 279 277 279 275 270 266 266 263 261 252 242 238 231 228 225 223
272 274 275 276 280 282 283 283 283 284 280 279 275 275 270 266 263 260 259 249 245 238 236 232 231 230 231
270 272 274 275 277 279 278 279 281 280 278 276 270 268 263 263 259 254 250 243 245 238 234 237 236 234 234
267 269 271 272 273 273 273 274 277 275 273 268 264 263 260 258 251 247 248 243 234 231 233 237 235 234 233
263 265 267 269 267 268 269 267 272 274 265 260 260 258 258 252 248 242 240 233 228 239 243 237 235 234 234
259 261 262 263 265 265 266 264 264 265 260 254 256 249 248 247 240 236 235 241 245 248 240 237 234 233 233
254 256 257 259 259 261 261 259 257 256 250 247 249 239 241 244 246 247 249 248 247 245 242 238 238 239 238
251 252 254 253 256 256 254 254 253 249 244 242 243 240 242 248 254 255 253 251 247 245 240 238 239 239 240
249 250 249 249 250 249 249 247 248 244 240 239 243 246 249 253 254 254 255 253 244 238 237 240 242 243 246
245 246 246 246 245 244 244 243 245 240 237 240 244 247 251 253 257 256 254 247 240 239 240 244 248 249 251
242 243 244 243 241 240 241 240 240 238 237 241 245 252 258 259 256 256 250 243 242 244 247 251 256 257 257
240 240 240 240 237 238 238 238 237 236 239 243 245 251 257 259 258 248 247 245 246 249 252 255 259 262 261